Location: Newark
(39.6105°N, 110.8138°W)
Time: 13:41:28
(UTC+00:00)

Hubble Space Telescope - Visible Passes

Search period start: 07 April 2020 00:00
Search period end: 17 April 2020 00:00
Orbit: 536 x 540 km, 28.5° (Epoch: 07 April)

Date Brightness Start Highest point End Pass type
(mag) Time Alt. Az. Time Alt. Az. Time Alt. Az.
07 Apr 3.0 03:25:57 10° SSW 03:26:54 12° S 03:26:54 12° S visible
08 Apr 2.7 03:14:51 10° SSW 03:17:07 15° S 03:17:07 15° S visible
09 Apr 2.6 03:03:52 10° SSW 03:06:22 16° S 03:07:15 15° SSE visible
10 Apr 2.7 02:52:58 10° SW 02:55:36 17° S 02:57:19 13° SSE visible
11 Apr 2.7 02:42:08 10° SW 02:44:50 17° S 02:47:20 11° SE visible
12 Apr 2.7 02:31:20 10° SW 02:34:04 17° S 02:36:49 10° SE visible
13 Apr 3.4 04:02:29 10° SSW 04:02:36 10° SSW 04:02:36 10° SSW visible
